Time,TemperatureF,DewpointF,PressureIn,WindDirection,WindDirectionDegrees,WindSpeedMPH,WindSpeedGustMPH,Humidity,HourlyPrecipIn,Conditions,Clouds,dailyrainin,SoftwareType,DateUTC
2017-05-24 00:02:00,53.8,35.0,29.96,SW,225,16.0,-999.0,49,0.00,,,0.00,,2017-05-24 07:02:00,
2017-05-24 00:08:00,53.5,35.0,29.95,SW,225,25.0,-999.0,50,0.00,,,0.00,,2017-05-24 07:08:00,
2017-05-24 00:13:00,53.2,35.0,29.95,WSW,248,15.0,-999.0,50,0.00,,,0.00,,2017-05-24 07:13:00,
2017-05-24 00:19:00,53.2,36.0,29.94,West,270,21.0,-999.0,51,0.00,,,0.00,,2017-05-24 07:19:00,
2017-05-24 00:27:00,53.1,36.0,29.95,West,270,9.0,24.0,53,0.01,,,0.01,,2017-05-24 07:27:00,
2017-05-24 00:33:00,53.1,36.0,29.95,WNW,293,6.0,22.0,53,0.01,,,0.01,,2017-05-24 07:33:00,
2017-05-24 00:42:00,52.8,35.0,29.96,West,270,15.0,-999.0,51,0.01,,,0.01,,2017-05-24 07:42:00,
2017-05-24 00:48:00,52.8,36.0,29.97,SE,135,5.0,22.0,53,0.01,,,0.01,,2017-05-24 07:48:00,
2017-05-24 00:56:00,52.5,36.0,29.97,SSW,203,11.0,22.0,54,0.01,,,0.01,,2017-05-24 07:56:00,
2017-05-24 01:02:00,52.5,37.0,29.96,West,270,10.0,21.0,55,0.00,,,0.01,,2017-05-24 08:02:00,
2017-05-24 01:08:00,52.3,37.0,29.97,SE,135,3.0,-999.0,58,0.00,,,0.01,,2017-05-24 08:08:00,
2017-05-24 01:14:00,52.2,38.0,29.97,SW,225,9.0,-999.0,60,0.00,,,0.01,,2017-05-24 08:14:00,
2017-05-24 01:19:00,52.2,37.0,29.97,SW,225,6.0,-999.0,58,0.00,,,0.01,,2017-05-24 08:19:00,
2017-05-24 01:25:00,52.2,37.0,29.97,SSW,203,7.0,-999.0,56,0.00,,,0.01,,2017-05-24 08:25:00,
2017-05-24 01:31:00,52.2,37.0,29.98,SW,225,11.0,-999.0,56,0.00,,,0.01,,2017-05-24 08:31:00,
2017-05-24 01:37:00,52.3,37.0,29.98,North,0,11.0,-999.0,56,0.00,,,0.01,,2017-05-24 08:37:00,
2017-05-24 01:42:00,52.2,37.0,29.97,WSW,248,9.0,-999.0,58,0.00,,,0.01,,2017-05-24 08:42:00,
2017-05-24 01:48:00,51.9,37.0,29.98,South,180,4.0,-999.0,58,0.00,,,0.01,,2017-05-24 08:48:00,
2017-05-24 01:53:00,51.9,37.0,29.97,West,270,9.0,-999.0,56,0.00,,,0.01,,2017-05-24 08:53:00,
2017-05-24 01:59:00,51.8,37.0,29.97,SSW,203,8.0,-999.0,56,0.00,,,0.01,,2017-05-24 08:59:00,
2017-05-24 02:05:00,51.8,36.0,29.97,South,180,5.0,-999.0,55,0.00,,,0.01,,2017-05-24 09:05:00,
2017-05-24 02:10:00,51.8,36.0,29.97,SW,225,9.0,-999.0,55,0.00,,,0.01,,2017-05-24 09:10:00,
2017-05-24 02:16:00,51.5,36.0,29.97,SSW,203,5.0,-999.0,55,0.00,,,0.01,,2017-05-24 09:16:00,
2017-05-24 02:21:00,51.5,36.0,29.97,SSW,203,7.0,-999.0,56,0.00,,,0.01,,2017-05-24 09:21:00,
2017-05-24 02:27:00,51.4,36.0,29.97,South,180,6.0,-999.0,56,0.00,,,0.01,,2017-05-24 09:27:00,
2017-05-24 02:33:00,51.4,36.0,29.97,WSW,248,12.0,-999.0,56,0.00,,,0.01,,2017-05-24 09:33:00,
2017-05-24 02:39:00,51.4,36.0,29.96,WSW,248,11.0,-999.0,56,0.00,,,0.01,,2017-05-24 09:39:00,
2017-05-24 02:44:00,51.3,37.0,29.96,WSW,248,6.0,-999.0,58,0.00,,,0.01,,2017-05-24 09:44:00,
2017-05-24 02:50:00,51.3,37.0,29.96,SSW,203,7.0,-999.0,58,0.00,,,0.01,,2017-05-24 09:50:00,
2017-05-24 02:55:00,51.3,37.0,29.96,SW,225,7.0,-999.0,58,0.00,,,0.01,,2017-05-24 09:55:00,
2017-05-24 03:01:00,51.3,37.0,29.96,WSW,248,2.0,-999.0,58,0.00,,,0.01,,2017-05-24 10:01:00,
2017-05-24 03:07:00,51.3,36.0,29.96,SSE,158,7.0,-999.0,56,0.00,,,0.01,,2017-05-24 10:07:00,
2017-05-24 03:12:00,51.3,36.0,29.97,South,180,8.0,-999.0,56,0.00,,,0.01,,2017-05-24 10:12:00,
2017-05-24 03:19:00,51.0,36.0,29.96,SW,225,4.0,-999.0,58,0.00,,,0.01,,2017-05-24 10:19:00,
2017-05-24 03:25:00,51.0,36.0,29.96,SW,225,5.0,-999.0,58,0.00,,,0.01,,2017-05-24 10:25:00,
2017-05-24 03:31:00,51.3,37.0,29.96,SSW,203,10.0,-999.0,58,0.00,,,0.01,,2017-05-24 10:31:00,
2017-05-24 03:36:00,51.0,37.0,29.96,SW,225,9.0,-999.0,59,0.00,,,0.01,,2017-05-24 10:36:00,
2017-05-24 03:42:00,51.0,36.0,29.96,South,180,7.0,-999.0,58,0.00,,,0.01,,2017-05-24 10:42:00,
2017-05-24 03:48:00,50.9,36.0,29.96,WSW,248,4.0,-999.0,58,0.00,,,0.01,,2017-05-24 10:48:00,
2017-05-24 03:53:00,50.9,36.0,29.96,West,270,6.0,-999.0,58,0.00,,,0.01,,2017-05-24 10:53:00,
2017-05-24 03:59:00,50.7,36.0,29.96,South,180,7.0,-999.0,56,0.00,,,0.01,,2017-05-24 10:59:00,
2017-05-24 04:04:00,50.9,36.0,29.96,SW,225,5.0,-999.0,56,0.00,,,0.01,,2017-05-24 11:04:00,
2017-05-24 04:10:00,50.5,36.0,29.96,SSW,203,4.0,-999.0,59,0.00,,,0.01,,2017-05-24 11:10:00,
2017-05-24 04:15:00,50.5,36.0,29.96,West,270,6.0,-999.0,59,0.00,,,0.01,,2017-05-24 11:15:00,
2017-05-24 04:21:00,50.5,36.0,29.96,WNW,293,4.0,-999.0,59,0.00,,,0.01,,2017-05-24 11:21:00,
2017-05-24 04:26:00,50.5,36.0,29.97,WNW,293,7.0,-999.0,59,0.00,,,0.01,,2017-05-24 11:26:00,
2017-05-24 04:32:00,50.5,36.0,29.97,SW,225,6.0,-999.0,59,0.00,,,0.01,,2017-05-24 11:32:00,
2017-05-24 04:38:00,50.3,36.0,29.97,NNW,338,2.0,-999.0,59,0.00,,,0.01,,2017-05-24 11:38:00,
2017-05-24 04:44:00,50.1,36.0,29.97,West,270,6.0,-999.0,60,0.00,,,0.01,,2017-05-24 11:44:00,
2017-05-24 04:49:00,50.0,37.0,29.97,NNW,338,1.0,-999.0,61,0.00,,,0.01,,2017-05-24 11:49:00,
2017-05-24 04:52:00,50.0,37.0,29.97,NNW,338,2.0,-999.0,63,0.00,,,0.01,,2017-05-24 11:52:00,
2017-05-24 04:58:00,49.6,36.0,29.97,WSW,248,0.0,-999.0,61,0.00,,,0.01,,2017-05-24 11:58:00,
2017-05-24 05:09:00,49.0,36.0,29.98,WSW,248,2.0,-999.0,61,0.00,,,0.01,,2017-05-24 12:09:00,
2017-05-24 05:14:00,49.0,36.0,29.98,WSW,248,1.0,-999.0,61,0.00,,,0.01,,2017-05-24 12:14:00,
2017-05-24 05:20:00,48.4,35.0,29.98,NNE,23,1.0,-999.0,61,0.00,,,0.01,,2017-05-24 12:20:00,
2017-05-24 05:26:00,48.0,34.0,29.98,WNW,293,1.0,-999.0,60,0.00,,,0.01,,2017-05-24 12:26:00,
2017-05-24 05:31:00,47.5,34.0,29.98,WNW,293,0.0,-999.0,60,0.00,,,0.01,,2017-05-24 12:31:00,
2017-05-24 05:37:00,47.1,34.0,29.98,NW,315,1.0,-999.0,61,0.00,,,0.01,,2017-05-24 12:37:00,
2017-05-24 05:42:00,46.5,33.0,29.98,NNW,338,2.0,-999.0,61,0.00,,,0.01,,2017-05-24 12:42:00,
2017-05-24 05:48:00,46.7,34.0,29.98,NW,315,0.0,-999.0,61,0.00,,,0.01,,2017-05-24 12:48:00,
2017-05-24 05:53:00,46.1,34.0,29.98,NW,315,2.0,-999.0,63,0.00,,,0.01,,2017-05-24 12:53:00,
2017-05-24 05:59:00,45.9,34.0,29.98,NW,315,1.0,-999.0,65,0.00,,,0.01,,2017-05-24 12:59:00,
2017-05-24 06:04:00,45.9,34.0,29.98,WNW,293,1.0,-999.0,65,0.00,,,0.01,,2017-05-24 13:04:00,
2017-05-24 06:11:00,45.9,34.0,29.98,SSW,203,2.0,-999.0,65,0.00,,,0.01,,2017-05-24 13:11:00,
2017-05-24 06:16:00,45.9,34.0,29.98,NE,45,3.0,-999.0,65,0.00,,,0.01,,2017-05-24 13:16:00,
2017-05-24 06:23:00,45.9,34.0,29.98,NW,315,2.0,-999.0,65,0.00,,,0.01,,2017-05-24 13:23:00,
2017-05-24 06:28:00,46.5,35.0,29.98,NNE,23,2.0,-999.0,65,0.00,,,0.01,,2017-05-24 13:28:00,
2017-05-24 06:34:00,47.5,36.0,29.98,North,0,3.0,-999.0,65,0.00,,,0.01,,2017-05-24 13:34:00,
2017-05-24 06:40:00,48.5,37.0,29.98,NNW,338,1.0,-999.0,65,0.00,,,0.01,,2017-05-24 13:40:00,
2017-05-24 06:45:00,49.8,38.0,29.99,NNW,338,2.0,-999.0,65,0.00,,,0.01,,2017-05-24 13:45:00,
2017-05-24 06:50:00,50.9,38.0,29.99,NE,45,3.0,-999.0,61,0.00,,,0.01,,2017-05-24 13:50:00,
2017-05-24 06:56:00,51.4,38.0,30.00,ENE,68,3.0,-999.0,61,0.00,,,0.01,,2017-05-24 13:56:00,
2017-05-24 07:01:00,52.6,39.0,30.00,ENE,68,2.0,-999.0,60,0.00,,,0.01,,2017-05-24 14:01:00,
2017-05-24 07:07:00,53.1,37.0,29.99,ESE,113,4.0,-999.0,55,0.00,,,0.01,,2017-05-24 14:07:00,
2017-05-24 07:13:00,53.5,38.0,30.00,ENE,68,3.0,-999.0,55,0.00,,,0.01,,2017-05-24 14:13:00,
2017-05-24 07:18:00,53.8,37.0,29.99,ESE,113,3.0,-999.0,55,0.00,,,0.01,,2017-05-24 14:18:00,
2017-05-24 07:24:00,54.0,38.0,30.00,ENE,68,4.0,-999.0,55,0.00,,,0.01,,2017-05-24 14:24:00,
2017-05-24 07:29:00,54.0,38.0,30.00,NE,45,2.0,-999.0,55,0.00,,,0.01,,2017-05-24 14:29:00,
2017-05-24 07:35:00,55.5,39.0,30.00,East,90,3.0,-999.0,55,0.00,,,0.01,,2017-05-24 14:35:00,
2017-05-24 07:42:00,55.1,39.0,30.00,ENE,68,6.0,-999.0,55,0.00,,,0.01,,2017-05-24 14:42:00,
2017-05-24 07:47:00,55.0,39.0,30.00,NE,45,6.0,-999.0,55,0.00,,,0.01,,2017-05-24 14:47:00,
2017-05-24 07:53:00,55.1,39.0,30.01,ENE,68,4.0,-999.0,55,0.00,,,0.01,,2017-05-24 14:53:00,
2017-05-24 07:58:00,55.9,39.0,30.00,ESE,113,3.0,-999.0,55,0.00,,,0.01,,2017-05-24 14:58:00,
2017-05-24 08:04:00,56.9,40.0,30.00,East,90,5.0,-999.0,53,0.00,,,0.01,,2017-05-24 15:04:00,
2017-05-24 08:09:00,55.9,39.0,30.00,NE,45,5.0,-999.0,54,0.00,,,0.01,,2017-05-24 15:09:00,
2017-05-24 08:15:00,57.2,40.0,30.00,WNW,293,1.0,-999.0,54,0.00,,,0.01,,2017-05-24 15:15:00,
2017-05-24 08:20:00,59.0,40.0,30.00,NNW,338,2.0,-999.0,50,0.00,,,0.01,,2017-05-24 15:20:00,
2017-05-24 08:26:00,59.4,40.0,30.00,West,270,3.0,-999.0,50,0.00,,,0.01,,2017-05-24 15:26:00,
2017-05-24 08:31:00,59.7,40.0,30.00,NE,45,2.0,-999.0,49,0.00,,,0.01,,2017-05-24 15:31:00,
2017-05-24 08:37:00,60.7,40.0,30.00,North,0,2.0,-999.0,48,0.00,,,0.01,,2017-05-24 15:37:00,
2017-05-24 08:42:00,61.1,40.0,30.00,NNE,23,3.0,-999.0,45,0.00,,,0.01,,2017-05-24 15:42:00,
2017-05-24 08:48:00,60.0,40.0,30.01,NNE,23,2.0,-999.0,48,0.00,,,0.01,,2017-05-24 15:48:00,
2017-05-24 08:53:00,60.0,40.0,30.01,NNW,338,1.0,-999.0,49,0.00,,,0.01,,2017-05-24 15:53:00,
2017-05-24 08:59:00,60.2,39.0,30.00,NE,45,3.0,-999.0,45,0.00,,,0.01,,2017-05-24 15:59:00,
2017-05-24 09:05:00,59.7,40.0,30.00,SSE,158,2.0,-999.0,49,0.00,,,0.01,,2017-05-24 16:05:00,
2017-05-24 09:10:00,61.1,39.0,30.00,East,90,2.0,-999.0,45,0.00,,,0.01,,2017-05-24 16:10:00,
2017-05-24 09:16:00,62.2,41.0,30.01,East,90,3.0,-999.0,45,0.00,,,0.01,,2017-05-24 16:16:00,
2017-05-24 09:21:00,61.7,40.0,30.00,West,270,2.0,-999.0,45,0.00,,,0.01,,2017-05-24 16:21:00,
2017-05-24 09:27:00,61.1,41.0,30.00,North,0,2.0,-999.0,48,0.00,,,0.01,,2017-05-24 16:27:00,
2017-05-24 09:32:00,61.9,40.0,30.00,East,90,3.0,-999.0,45,0.00,,,0.01,,2017-05-24 16:32:00,
2017-05-24 09:38:00,61.7,41.0,30.00,NE,45,2.0,-999.0,46,0.00,,,0.01,,2017-05-24 16:38:00,
2017-05-24 09:43:00,61.7,41.0,30.00,NE,45,2.0,-999.0,48,0.00,,,0.01,,2017-05-24 16:43:00,
2017-05-24 09:49:00,62.7,41.0,30.00,NNE,23,2.0,-999.0,45,0.00,,,0.01,,2017-05-24 16:49:00,
2017-05-24 09:54:00,62.4,41.0,30.00,East,90,3.0,-999.0,45,0.00,,,0.01,,2017-05-24 16:54:00,
2017-05-24 10:00:00,63.9,41.0,30.00,NNE,23,3.0,-999.0,44,0.00,,,0.01,,2017-05-24 17:00:00,
2017-05-24 10:05:00,64.9,41.0,30.00,East,90,5.0,-999.0,41,0.00,,,0.01,,2017-05-24 17:05:00,
2017-05-24 10:11:00,64.4,40.0,30.00,NE,45,2.0,-999.0,41,0.00,,,0.01,,2017-05-24 17:11:00,
2017-05-24 10:16:00,64.8,41.0,30.00,ESE,113,2.0,-999.0,41,0.00,,,0.01,,2017-05-24 17:16:00,
2017-05-24 10:22:00,66.4,41.0,30.00,NNW,338,3.0,-999.0,40,0.00,,,0.01,,2017-05-24 17:22:00,
2017-05-24 10:27:00,65.9,41.0,30.00,ENE,68,4.0,-999.0,40,0.00,,,0.01,,2017-05-24 17:27:00,
2017-05-24 10:33:00,66.5,40.0,30.00,South,180,2.0,-999.0,39,0.00,,,0.01,,2017-05-24 17:33:00,
2017-05-24 10:39:00,67.5,40.0,30.00,SSE,158,3.0,-999.0,37,0.00,,,0.01,,2017-05-24 17:39:00,
2017-05-24 10:44:00,65.8,39.0,30.00,SSE,158,2.0,-999.0,37,0.00,,,0.01,,2017-05-24 17:44:00,
2017-05-24 10:50:00,65.9,37.0,30.00,SE,135,2.0,-999.0,35,0.00,,,0.01,,2017-05-24 17:50:00,
2017-05-24 10:55:00,66.9,38.0,29.99,West,270,2.0,-999.0,35,0.00,,,0.01,,2017-05-24 17:55:00,
2017-05-24 11:01:00,66.1,39.0,30.00,ESE,113,2.0,-999.0,37,0.00,,,0.01,,2017-05-24 18:01:00,
2017-05-24 11:06:00,67.3,39.0,30.00,ESE,113,6.0,-999.0,35,0.00,,,0.01,,2017-05-24 18:06:00,
2017-05-24 11:12:00,65.5,37.0,30.00,ESE,113,4.0,-999.0,35,0.00,,,0.01,,2017-05-24 18:12:00,
2017-05-24 11:18:00,64.8,37.0,30.00,NE,45,6.0,-999.0,35,0.00,,,0.01,,2017-05-24 18:18:00,
2017-05-24 11:24:00,62.5,37.0,29.99,SE,135,4.0,-999.0,40,0.00,,,0.01,,2017-05-24 18:24:00,
2017-05-24 11:29:00,63.6,38.0,29.99,NNE,23,2.0,-999.0,40,0.00,,,0.01,,2017-05-24 18:29:00,
2017-05-24 11:35:00,62.4,42.0,29.99,West,270,6.0,-999.0,48,0.00,,,0.01,,2017-05-24 18:35:00,
2017-05-24 11:40:00,62.7,44.0,29.99,WNW,293,3.0,-999.0,50,0.00,,,0.01,,2017-05-24 18:40:00,
2017-05-24 11:46:00,64.6,44.0,29.99,WSW,248,4.0,-999.0,48,0.00,,,0.01,,2017-05-24 18:46:00,
2017-05-24 11:51:00,63.4,43.0,30.00,West,270,5.0,-999.0,48,0.00,,,0.01,,2017-05-24 18:51:00,
2017-05-24 11:57:00,63.2,43.0,30.00,WNW,293,2.0,-999.0,48,0.00,,,0.01,,2017-05-24 18:57:00,
2017-05-24 12:03:00,63.0,44.0,29.99,WNW,293,2.0,-999.0,50,0.00,,,0.01,,2017-05-24 19:03:00,
2017-05-24 12:09:00,62.5,43.0,29.99,NNW,338,6.0,-999.0,50,0.00,,,0.01,,2017-05-24 19:09:00,
2017-05-24 12:15:00,60.2,43.0,29.99,West,270,6.0,-999.0,53,0.00,,,0.01,,2017-05-24 19:15:00,
2017-05-24 12:20:00,60.0,43.0,29.99,NNE,23,2.0,-999.0,54,0.00,,,0.01,,2017-05-24 19:20:00,
2017-05-24 12:26:00,60.5,43.0,29.99,NNW,338,6.0,-999.0,54,0.00,,,0.01,,2017-05-24 19:26:00,
2017-05-24 12:31:00,59.3,43.0,29.99,West,270,4.0,-999.0,55,0.00,,,0.01,,2017-05-24 19:31:00,
2017-05-24 12:37:00,59.7,43.0,29.99,WSW,248,4.0,-999.0,55,0.00,,,0.01,,2017-05-24 19:37:00,
2017-05-24 12:43:00,59.3,43.0,29.99,WSW,248,3.0,-999.0,55,0.00,,,0.01,,2017-05-24 19:43:00,
2017-05-24 12:48:00,59.3,43.0,29.98,West,270,6.0,-999.0,55,0.00,,,0.01,,2017-05-24 19:48:00,
2017-05-24 12:54:00,60.0,43.0,29.99,North,0,4.0,-999.0,54,0.00,,,0.01,,2017-05-24 19:54:00,
2017-05-24 12:59:00,61.0,44.0,29.98,West,270,2.0,-999.0,54,0.00,,,0.01,,2017-05-24 19:59:00,
2017-05-24 13:06:00,63.9,44.0,29.99,West,270,5.0,-999.0,50,0.00,,,0.01,,2017-05-24 20:06:00,
2017-05-24 13:11:00,65.0,45.0,29.98,SW,225,2.0,-999.0,49,0.00,,,0.01,,2017-05-24 20:11:00,
2017-05-24 13:17:00,64.4,44.0,29.98,West,270,7.0,-999.0,49,0.00,,,0.01,,2017-05-24 20:17:00,
2017-05-24 13:22:00,64.4,44.0,29.98,WSW,248,3.0,-999.0,49,0.00,,,0.01,,2017-05-24 20:22:00,
2017-05-24 13:28:00,65.6,45.0,29.98,West,270,3.0,-999.0,48,0.00,,,0.01,,2017-05-24 20:28:00,
2017-05-24 13:33:00,67.1,45.0,29.98,WSW,248,2.0,-999.0,45,0.00,,,0.01,,2017-05-24 20:33:00,
2017-05-24 13:39:00,66.9,44.0,29.98,NNW,338,3.0,-999.0,44,0.00,,,0.01,,2017-05-24 20:39:00,
2017-05-24 13:44:00,67.1,45.0,29.98,ESE,113,1.0,-999.0,45,0.00,,,0.01,,2017-05-24 20:44:00,
2017-05-24 13:50:00,67.6,42.0,29.97,NW,315,2.0,-999.0,40,0.00,,,0.01,,2017-05-24 20:50:00,
2017-05-24 13:55:00,67.8,43.0,29.97,WNW,293,0.0,-999.0,41,0.00,,,0.01,,2017-05-24 20:55:00,
2017-05-24 14:01:00,70.3,44.0,29.97,NW,315,2.0,-999.0,39,0.00,,,0.01,,2017-05-24 21:01:00,
2017-05-24 14:06:00,71.0,44.0,29.96,NW,315,2.0,-999.0,37,0.00,,,0.01,,2017-05-24 21:06:00,
2017-05-24 14:12:00,71.4,41.0,29.97,ENE,68,3.0,-999.0,34,0.00,,,0.01,,2017-05-24 21:12:00,
2017-05-24 14:18:00,69.0,40.0,29.97,WNW,293,4.0,-999.0,35,0.00,,,0.01,,2017-05-24 21:18:00,
2017-05-24 14:23:00,70.3,41.0,29.97,NNW,338,2.0,-999.0,35,0.00,,,0.01,,2017-05-24 21:23:00,
2017-05-24 14:29:00,70.3,41.0,29.97,NNE,23,2.0,-999.0,35,0.00,,,0.01,,2017-05-24 21:29:00,
2017-05-24 14:34:00,69.8,40.0,29.97,NNW,338,1.0,-999.0,34,0.00,,,0.01,,2017-05-24 21:34:00,
2017-05-24 14:40:00,70.0,38.0,29.97,NNE,23,3.0,-999.0,31,0.00,,,0.01,,2017-05-24 21:40:00,
2017-05-24 14:45:00,69.6,39.0,29.98,North,0,2.0,-999.0,32,0.00,,,0.01,,2017-05-24 21:45:00,
2017-05-24 14:51:00,67.3,40.0,29.97,South,180,1.0,-999.0,37,0.00,,,0.01,,2017-05-24 21:51:00,
2017-05-24 14:56:00,67.1,41.0,29.97,NE,45,2.0,-999.0,39,0.00,,,0.01,,2017-05-24 21:56:00,
2017-05-24 15:02:00,65.8,40.0,29.97,WNW,293,3.0,-999.0,40,0.00,,,0.01,,2017-05-24 22:02:00,
2017-05-24 15:07:00,63.9,41.0,29.97,WSW,248,3.0,-999.0,43,0.00,,,0.01,,2017-05-24 22:07:00,